Regional Weather Roundup
Issued by NWS Columbia, SC

Home | Current Version | Previous Version | Text Only | Print | Product List | Glossary On
Versions: 1 2 3 4 5 6 7 8 9 10 11 12 13 14 15 16 17 18 19 20 21 22 23 24 25 26 27 28 29 30 31 32 33 34 35 36 37 38 39 40 41 42 43 44 45 46 47
000
ASUS42 KCAE 010410
RWRCAE
REGIONAL WEATHER ROUNDUP
NATIONAL WEATHER SERVICE COLUMBIA SC
1200 AM EDT WED OCT 01 2014

NOTE: "FAIR" INDICATES FEW OR NO CLOUDS BELOW 12,000 FEET WITH NO
SIGNIFICANT WEATHER AND/OR OBSTRUCTIONS TO VISIBILITY.

NOT ALL STATIONS ARE QUALITY CONTROLLED BY THE NATIONAL
WEATHER SERVICE. USE DATA WITH CAUTION...ESPECIALLY
DEWPOINT OBSERVATIONS.

SCZ001>056-GAZ040-063>065-077-010500-
...UPSTATE SOUTH CAROLINA...

CITY           SKY/WX    TMP DP  RH WIND       PRES   REMARKS
ANDERSON       CLEAR     64  63  96 CALM      29.94S
LIBERTY        FAIR      62  63 100 MISG      29.95S
SPARTANBURG    FAIR      64  64 100 CALM      29.94S
CLEMSON        CLEAR     71  63  75 CALM      29.96R
GREENVILLE     CLEAR     68  62  81 CALM      29.96S
GREENWOOD      CLEAR     64  61  90 CALM      29.95S
GREER          MOCLDY    67  64  90 CALM      29.94R
ROCK HILL      CLEAR     61  61 100 CALM      29.94S FOG
CHESTER        FAIR      64  63  94 CALM      29.99R
LAURENS        FAIR      64 N/A N/A W5        29.95S


...CENTRAL SOUTH CAROLINA...

CITY           SKY/WX    TMP DP  RH WIND       PRES   REMARKS
COLUMBIA APT   CLEAR     66  62  87 CALM      29.92R
COLUMBIA OWENS CLEAR     66  63  90 CALM      29.93R
DARLINGTON     CLEAR     63  59  88 CALM      29.93R
FLORENCE       CLEAR     65  63  93 CALM      29.91S
MCENTIRE ANGB  CLEAR     63  62  99 CALM      29.92S
ORANGEBURG     CLEAR     65  63  93 CALM      29.92R
SUMTER SHAW    CLEAR     66  62  87 CALM      29.90S
NEWBERRY       FAIR      64  64 100 CALM      29.96S
AIKEN          FAIR      63  63 100 CALM      29.97R
BARNWELL       FAIR      64  63  94 CALM      29.93R
MANNING        FAIR      64 N/A N/A CALM      29.91S
CAMDEN         FAIR      63  61  94 CALM      29.93S
LANCASTER      RAIN      64  64 100 CALM      29.94R VSB 3/4
WINNSBORO      FAIR      66  63  88 CALM      29.93S


...EASTERN AND COASTAL SOUTH CAROLINA...

CITY           SKY/WX    TMP DP  RH WIND       PRES   REMARKS
MYRTLE BEACH   CLEAR     68  63  83 N5        29.90S
N MYRTLE BCH   CLEAR     65  63  93 CALM      29.90S
CONWAY         FAIR      63  63 100 CALM      29.91S
MARION         FAIR      63  63 100 CALM      29.92R FOG
HARTSVILLE     FAIR      64  63  94 CALM      29.93S
FLORENCE       CLEAR     65  63  93 CALM      29.91S
DARLINGTON     CLEAR     63  59  88 CALM      29.93R
CHARLESTON APT CLEAR     69  65  86 CALM      29.91S
MOUNT PLEASANT FAIR      66  64  94 CALM      29.90S
WALTERBORO     CLEAR     64 N/A N/A CALM      29.93R
BEAUFORT       CLEAR     68  66  93 CALM      29.91S


...EASTERN GEORGIA...

CITY           SKY/WX    TMP DP  RH WIND       PRES   REMARKS
AUGUSTA BUSH F CLEAR     63  63 100 CALM      29.92R FOG
AUGUSTA DANIEL CLEAR     70  66  87 N3        29.93R
THOMSON        CLEAR     64  64 100 CALM      29.97S
WASHINGTON     FAIR      66  66 100 CALM      29.93S
CLAXTON        FAIR      68  68 100 CALM      29.92S
SYLVANIA       CLEAR     68  68  98 CALM      29.92S
STATESBORO     CLEAR     65  65 100 CALM      29.92S
SAVANNAH       CLEAR     70  66  87 CALM      29.91F


...SOUTHERN NORTH CAROLINA...

CITY           SKY/WX    TMP DP  RH WIND       PRES   REMARKS
CHARLOTTE      CLEAR     67  61  81 CALM      29.94R
MONROE         CLEAR     64  61  90 CALM      29.93R
WADESBORO      FOG       62  61  96 CALM      29.92S VSB 1/2
ROCKINGHAM     CLEAR     64  61  91 CALM      29.92S
RUTHERFORDTON  CLEAR     62  61  96 N3        29.96S
ASHEVILLE      CLEAR     58  55  90 CALM      30.02R

$$



USA.gov is the U.S. government's official web portal to all federal, state and local government web resources and services.